Riverside, CA

2:39 PM PDT on September 26, 2016 (GMT -0700)
Riverside Municipal

Weather History for KRAL - July, 2013

Change the Weather History Date:

Friday, July 5, 2013

  Actual Average Record
Temperature  
Mean Temperature 77 °F 77 °F  
Max Temperature 90 °F 91 °F 108 °F (1907)
Min Temperature 64 °F 63 °F 46 °F (1948)
Degree Days  
Heating Degree Days 0 0  
Month to date heating degree days 0 0  
Since 1 June heating degree days 0 2  
Since 1 July heating degree days 0 0  
Cooling Degree Days 12 12  
Month to date cooling degree days 85 57  
Year to date cooling degree days 675 454  
Since 1 June cooling degree days 389 277  
Growing Degree Days 26 (Base 50)    
Moisture  
Dew Point 59 °F    
Average Humidity 58    
Maximum Humidity 87    
Minimum Humidity 29    
Precipitation  
Precipitation 0.00 in 0.01 in 0.01 in (2001)
Month to date precipitation 0.00 0.01  
Year to date precipitation 2.21 9.20  
Since 1 July precipitation 0.00  
Snow  
Snow 0.00 in - - ()
Month to date snowfall 0.0  
Year to date snowfall 0.0  
Snow Depth 0.00 in    
Sea Level Pressure  
Sea Level Pressure 29.77 in    
Wind  
Wind Speed 4 mph (West)    
Max Wind Speed 14 mph    
Max Gust Speed 21 mph    
Visibility 7 miles    
Events      
T = Trace of Precipitation, MM = Missing Value Source: NWS Daily Summary

Daily Weather History Graph

Daily Weather History Graph

Search for Another Location

Airport or City:

Trip Planner

Search our weather history database for the weather conditions in past years. The results will help you decide how hot, cold, wet, or windy it might be!

Date:

Astronomy

Jul. 05, 2013 Rise Set
Actual Time 5:44 AM PDT 8:04 PM PDT
Civil Twilight 5:15 AM PDT 8:33 PM PDT
Nautical Twilight 4:39 AM PDT 9:08 PM PDT
Astronomical Twilight 4:01 AM PDT 9:47 PM PDT
Moon 3:44 AM PDT (7/5) 6:05 PM PDT (7/5)
Length of Visible Light 15h 17m
Length of Day
14h 20m
Waning Crescent, 6% of the Moon is Illuminated
Jul 5
Waning Crescent
Jul 8
New
Jul 15
First Quarter
Jul 22
Full
Jul 29
Last Quarter

Hourly Weather History & Observations

Time (PDT) Temp. Heat Index Dew Point Humidity Pressure Visibility Wind Dir Wind Speed Gust Speed Precip Events Conditions
12:53 AM 66.9 °F - 59.0 °F 76% 29.78 in 10.0 mi Calm Calm - N/A   Clear
1:53 AM 66.0 °F - 59.0 °F 78% 29.77 in 9.0 mi Calm Calm - N/A   Clear
2:53 AM 64.9 °F - 59.0 °F 81% 29.75 in 7.0 mi West 4.6 mph - N/A   Clear
3:53 AM 64.0 °F - 59.0 °F 84% 29.75 in 5.0 mi West 3.5 mph - N/A   Haze
4:53 AM 64.0 °F - 59.0 °F 84% 29.75 in 3.0 mi Calm Calm - N/A   Haze
5:53 AM 64.0 °F - 59.0 °F 84% 29.77 in 2.0 mi West 3.5 mph - N/A   Haze
6:53 AM 64.0 °F - 59.0 °F 84% 29.79 in 2.0 mi West 3.5 mph - N/A   Haze
7:53 AM 64.9 °F - 60.1 °F 84% 29.81 in 2.0 mi West 3.5 mph - N/A   Haze
8:53 AM 68.0 °F - 60.1 °F 76% 29.81 in 2.0 mi Calm Calm - N/A   Haze
9:21 AM 69.8 °F - 60.8 °F 73% 29.85 in 3.0 mi Variable 3.5 mph - N/A   Haze
9:53 AM 73.9 °F - 60.1 °F 62% 29.80 in 4.0 mi SSW 3.5 mph - N/A   Haze
10:53 AM 77.0 °F - 59.0 °F 54% 29.79 in 5.0 mi Calm Calm - N/A   Haze
11:53 AM 82.9 °F 82.6 °F 57.9 °F 42% 29.78 in 6.0 mi Variable 3.5 mph - N/A   Haze
12:53 PM 86.0 °F 84.5 °F 55.0 °F 35% 29.77 in 7.0 mi West 6.9 mph - N/A   Mostly Cloudy
1:53 PM 89.1 °F 88.2 °F 59.0 °F 36% 29.75 in 10.0 mi West 9.2 mph 17.3 mph N/A   Mostly Cloudy
2:53 PM 88.0 °F 86.9 °F 57.9 °F 36% 29.73 in 10.0 mi West 10.4 mph 19.6 mph N/A   Clear
3:53 PM 86.0 °F 85.0 °F 57.9 °F 38% 29.73 in 10.0 mi WNW 10.4 mph 17.3 mph N/A   Scattered Clouds
4:53 PM 87.1 °F - 52.0 °F 30% 29.71 in 10.0 mi West 9.2 mph 17.3 mph N/A   Clear
5:53 PM 84.0 °F 83.0 °F 55.9 °F 38% 29.70 in 10.0 mi West 11.5 mph 17.3 mph N/A   Clear
6:53 PM 81.0 °F 81.3 °F 59.0 °F 47% 29.73 in 10.0 mi West 10.4 mph - N/A   Clear
7:53 PM 75.9 °F - 61.0 °F 60% 29.74 in 10.0 mi West 6.9 mph - N/A   Clear
8:53 PM 73.0 °F - 61.0 °F 66% 29.76 in 10.0 mi West 4.6 mph - N/A   Clear
9:53 PM 72.0 °F - 60.1 °F 66% 29.78 in 10.0 mi West 4.6 mph - N/A   Clear
10:53 PM 69.1 °F - 60.1 °F 73% 29.78 in 10.0 mi West 4.6 mph - N/A   Clear
11:53 PM 68.0 °F - 60.1 °F 76% 29.79 in 10.0 mi West 4.6 mph - N/A   Clear